Weather History for KBKE - November, 2012

Change the Weather History Date:

Saturday, November 24, 2012

  Actual Average Record
Temperature  
Mean Temperature 38 °F 30 °F  
Max Temperature 42 °F 39 °F 65 °F (1960)
Min Temperature 34 °F 20 °F -11 °F (1985)
Degree Days  
Heating Degree Days 27 35  
Month to date heating degree days 651 739  
Since 1 July heating degree days 1622 1818  
Cooling Degree Days 0 0  
Month to date cooling degree days 0 0  
Year to date cooling degree days 184 169  
Moisture  
Dew Point 34 °F    
Average Humidity 77    
Maximum Humidity 92    
Minimum Humidity 62    
Precipitation  
Precipitation 0.09 in 0.03 in 0.52 in (1977)
Month to date precipitation 0.43 0.71  
Year to date precipitation 7.35 8.96  
Sea Level Pressure  
Sea Level Pressure 30.17 in    
Wind  
Wind Speed 2 mph (West)    
Max Wind Speed 7 mph    
Max Gust Speed 8 mph    
Visibility 9 miles    
Events Rain    
T = Trace of Precipitation, MM = Missing Value Source: NWS Daily Summary

Daily Weather History Graph

Daily Weather History Graph

Search for Another Location

Airport or City:

Trip Planner

Search our weather history database for the weather conditions in past years. The results will help you decide how hot, cold, wet, or windy it might be!

Date:

Astronomy

Nov. 24, 2012 Rise Set
Actual Time 7:00 AM PST 4:14 PM PST
Civil Twilight 6:28 AM PST 4:47 PM PST
Nautical Twilight 5:52 AM PST 5:23 PM PST
Astronomical Twilight 5:17 AM PST 5:58 PM PST
Moon 2:08 PM PST (11/24) 3:15 AM PST (11/24)
Length of Visible Light 10h 18m
Length of Day
9h 13m
Waxing Gibbous, 88% of the Moon is Illuminated
Nov 24
Waxing Gibbous
Nov 28
Full
Dec 6
Last Quarter
Dec 13
New
Dec 19
First Quarter

Hourly Weather History & Observations

Time (PST) Temp. Windchill Dew Point Humidity Pressure Visibility Wind Dir Wind Speed Gust Speed Precip Events Conditions
12:53 AM 36.0 °F 32.1 °F 28.9 °F 76% 30.23 in 10.0 mi WSW 4.6 mph - N/A   Overcast
1:53 AM 36.0 °F - 30.0 °F 79% 30.24 in 10.0 mi Calm Calm - N/A   Overcast
2:53 AM 36.0 °F 33.3 °F 30.0 °F 79% 30.24 in 10.0 mi ESE 3.5 mph - N/A   Overcast
3:53 AM 37.0 °F 32.4 °F 30.0 °F 76% 30.23 in 10.0 mi SW 5.8 mph - N/A   Overcast
4:53 AM 36.0 °F - 30.0 °F 79% 30.24 in 10.0 mi Calm Calm - N/A   Overcast
5:53 AM 35.1 °F - 30.0 °F 82% 30.24 in 10.0 mi Calm Calm - N/A   Overcast
6:53 AM 35.1 °F - 30.0 °F 82% 30.25 in 10.0 mi Calm Calm - N/A   Overcast
7:53 AM 35.1 °F - 30.9 °F 85% 30.27 in 10.0 mi Calm Calm - N/A   Overcast
8:53 AM 37.0 °F - 30.9 °F 79% 30.26 in 10.0 mi Calm Calm - N/A   Overcast
9:53 AM 39.9 °F - 30.0 °F 68% 30.25 in 10.0 mi Calm Calm - N/A   Mostly Cloudy
10:53 AM 41.0 °F 39.0 °F 30.0 °F 65% 30.25 in 10.0 mi SE 3.5 mph - N/A   Overcast
11:53 AM 42.1 °F - 30.0 °F 62% 30.21 in 10.0 mi Calm Calm - N/A   Overcast
12:53 PM 42.1 °F 39.2 °F 32.0 °F 67% 30.22 in 10.0 mi North 4.6 mph - 0.00 in Rain Light Rain
1:53 PM 41.0 °F 38.0 °F 33.1 °F 73% 30.20 in 10.0 mi North 4.6 mph - 0.00 in Rain Light Rain
2:53 PM 41.0 °F - 34.0 °F 76% 30.19 in 10.0 mi Calm Calm - 0.00 in Rain Light Rain
3:05 PM 41.0 °F - 33.8 °F 76% 30.14 in 10.0 mi Calm Calm - 0.00 in Rain Light Rain
3:15 PM 41.0 °F - 33.8 °F 76% 30.14 in 10.0 mi Calm Calm - 0.00 in Rain Light Rain
3:53 PM 39.9 °F - 36.0 °F 86% 30.18 in 9.0 mi Calm Calm - 0.01 in Rain Light Rain
4:29 PM 39.2 °F - 37.4 °F 93% 30.13 in 10.0 mi Calm Calm - 0.01 in Rain Light Rain
4:41 PM 39.2 °F - 37.4 °F 93% 30.13 in 10.0 mi Calm Calm - 0.01 in Rain Light Rain
4:53 PM 39.0 °F - 36.0 °F 89% 30.17 in 10.0 mi Calm Calm - 0.01 in Rain Light Rain
5:23 PM 39.2 °F - 37.4 °F 93% 30.12 in 10.0 mi Calm Calm - 0.01 in Rain Light Rain
5:53 PM 37.9 °F - 36.0 °F 93% 30.16 in 10.0 mi Calm Calm - 0.01 in Rain Light Rain
6:53 PM 37.9 °F - 36.0 °F 93% 30.15 in 10.0 mi Calm Calm - 0.01 in Rain Light Rain
7:53 PM 37.0 °F 34.5 °F 36.0 °F 96% 30.14 in 8.0 mi NW 3.5 mph - 0.01 in Rain Light Rain
8:05 PM 37.4 °F 34.9 °F 35.6 °F 93% 30.09 in 7.0 mi NW 3.5 mph - 0.01 in Rain Light Rain
8:21 PM 37.4 °F - 35.6 °F 93% 30.08 in 6.0 mi Calm Calm - 0.01 in Rain Light Rain
8:53 PM 37.0 °F - 36.0 °F 96% 30.13 in 6.0 mi Calm Calm - 0.02 in Rain Light Rain
9:01 PM 37.4 °F - 35.6 °F 93% 30.08 in 6.0 mi Calm Calm - 0.00 in Rain Light Rain
9:17 PM 37.4 °F 34.9 °F 35.6 °F 93% 30.08 in 7.0 mi WNW 3.5 mph - 0.00 in Rain Light Rain
9:53 PM 37.0 °F 34.5 °F 36.0 °F 96% 30.13 in 6.0 mi West 3.5 mph - 0.01 in Rain Light Rain
10:53 PM 37.0 °F 33.3 °F 36.0 °F 96% 30.12 in 8.0 mi SSW 4.6 mph - 0.01 in Rain Light Rain
11:03 PM 37.4 °F 33.8 °F 35.6 °F 93% 30.08 in 6.0 mi SW 4.6 mph - 0.00 in   Overcast
11:53 PM 36.0 °F 32.1 °F 35.1 °F 97% 30.12 in 10.0 mi West 4.6 mph - 0.00 in   Overcast